TimeEST,TemperatureF,Dew PointF,Humidity,Sea Level PressureIn,VisibilityMPH,Wind Direction,Wind SpeedMPH,Gust SpeedMPH,PrecipitationIn,Events,Conditions,WindDirDegrees,DateUTC
12:51 AM,30.9,25.0,79,30.40,10.0,North,3.5,-,N/A,,Clear,360,2012-11-15 05:51:00
1:51 AM,30.0,25.0,82,30.37,9.0,North,5.8,-,N/A,,Clear,10,2012-11-15 06:51:00
2:51 AM,30.0,25.0,82,30.35,8.0,NNE,3.5,-,N/A,,Clear,20,2012-11-15 07:51:00
3:51 AM,28.9,24.1,82,30.35,9.0,North,4.6,-,N/A,,Clear,360,2012-11-15 08:51:00
4:51 AM,28.9,24.1,82,30.35,9.0,North,3.5,-,N/A,,Clear,360,2012-11-15 09:51:00
5:51 AM,30.0,24.1,79,30.37,9.0,Calm,Calm,-,N/A,,Clear,0,2012-11-15 10:51:00
6:51 AM,27.0,23.0,85,30.39,9.0,Calm,Calm,-,N/A,,Partly Cloudy,0,2012-11-15 11:51:00
7:51 AM,28.0,24.1,85,30.39,9.0,North,3.5,-,N/A,,Partly Cloudy,10,2012-11-15 12:51:00
8:51 AM,32.0,26.1,79,30.39,9.0,North,3.5,-,N/A,,Scattered Clouds,360,2012-11-15 13:51:00
9:51 AM,37.0,28.0,70,30.38,8.0,Calm,Calm,-,N/A,,Clear,0,2012-11-15 14:51:00
10:51 AM,42.8,28.4,57,30.36,10.0,NE,5.8,-,N/A,,Scattered Clouds,50,2012-11-15 15:51:00
11:51 AM,44.1,27.0,51,30.36,10.0,NNW,3.5,-,N/A,,Scattered Clouds,340,2012-11-15 16:51:00
12:51 PM,46.0,28.0,50,30.35,10.0,West,3.5,-,N/A,,Scattered Clouds,280,2012-11-15 17:51:00
1:51 PM,48.9,28.0,44,30.33,10.0,NNE,3.5,-,N/A,,Partly Cloudy,30,2012-11-15 18:51:00
2:51 PM,48.2,26.6,43,30.30,10.0,North,4.6,-,N/A,,Clear,10,2012-11-15 19:51:00
3:51 PM,46.9,27.0,46,30.32,10.0,North,5.8,-,N/A,,Mostly Cloudy,350,2012-11-15 20:51:00
4:51 PM,46.0,28.0,50,30.32,10.0,NW,5.8,-,N/A,,Overcast,320,2012-11-15 21:51:00
5:51 PM,44.1,28.9,55,30.32,10.0,North,4.6,-,N/A,,Overcast,360,2012-11-15 22:51:00
6:51 PM,43.0,28.9,58,30.34,10.0,North,4.6,-,N/A,,Overcast,350,2012-11-15 23:51:00
7:51 PM,41.0,30.2,65,30.32,10.0,North,5.8,-,N/A,,Overcast,360,2012-11-16 00:51:00
8:51 PM,39.2,30.2,70,30.33,10.0,North,5.8,-,N/A,,Mostly Cloudy,360,2012-11-16 01:51:00
9:51 PM,37.9,30.0,73,30.36,10.0,North,5.8,-,N/A,,Mostly Cloudy,360,2012-11-16 02:51:00
10:51 PM,37.0,30.9,79,30.36,9.0,Calm,Calm,-,N/A,,Mostly Cloudy,0,2012-11-16 03:51:00
11:51 PM,37.0,30.9,79,30.37,9.0,North,3.5,-,N/A,,Scattered Clouds,10,2012-11-16 04:51:00